Simultaneous Nadir Overpasses (SNOs) Predictions

Prediction of SNOs between LANDSAT-8 and METOP-B Satellite Orbit:

Table of predicted SNOs for the next 14.0 days since TLE Epoch: 9/1/2018
Index Date (LANDSAT-8) Time (LANDSAT-8) Lat,Lon (LANDSAT-8) SZA (LANDSAT-8 ) Date (METOP-B) Time (METOP-B) Lat,Lon (METOP-B) SZA (METOP-B ) Distance(km) Time Diff (sec)
1 09/03/2018 17:55:05 -81.25, 133.34 103.83 09/03/2018 17:54:32 -81.25, 133.50 103.82 2.61 33
2 09/03/2018 18:44:31 81.26, -58.90 76.21 09/03/2018 18:45:12 81.26, -59.03 76.21 2.23 41
3 09/06/2018 13:29:21 -81.26,-160.15 102.75 09/06/2018 13:28:51 -81.26,-159.97 102.75 3.00 30
4 09/06/2018 14:18:47 81.26, 7.58 77.28 09/06/2018 14:19:31 81.26, 7.46 77.28 2.05 44
5 09/09/2018 09:03:38 -81.24, -94.04 101.73 09/09/2018 09:03:12 -81.24, -94.22 101.76 3.00 26
6 09/09/2018 09:53:03 81.26, 74.03 78.35 09/09/2018 09:53:50 81.26, 73.94 78.37 1.52 47
7 09/12/2018 04:37:53 -81.24, -27.59 100.64 09/12/2018 04:37:30 -81.24, -27.71 100.66 2.07 23
8 09/12/2018 05:27:18 81.26, 140.45 79.44 09/12/2018 05:28:08 81.26, 140.41 79.46 0.67 50
9 09/15/2018 00:12:08 -81.26, 39.20 99.48 09/15/2018 00:11:48 -81.25, 39.17 99.50 0.89 20




NCC Satellite Simultaneous Nadir Overpasses (SNOs) Prediction Service
